GW1653 Weather Reports


time (UTC)temp
F
wind
direction
speed
knots
gust
knots
rain 1hr
in
rain 24hr
in
rain mn
in
humidity
%
barometer
mb
20260506231544 57 101 0.0 3.5 0.00 0.08 0.08 92 1007.6
20260506231029 57 0 0.0 3.5 0.00 0.08 0.08 93 1007.6
20260506230531 57 96 0.0 2.6 0.00 0.08 0.08 92 1007.5
20260506230052 57 169 0.0 2.6 0.00 0.08 0.08 92 1007.5
20260506225531 57 110 0.9 2.6 0.00 0.08 0.08 92 1007.4
20260506225031 57 111 0.9 2.6 0.00 0.08 0.08 92 1007.3
20260506224552 57 232 0.0 2.6 0.00 0.08 0.08 93 1007.4
20260506224031 57 0 0.0 2.6 0.00 0.08 0.08 92 1007.3
20260506223528 57 0 0.0 3.5 0.00 0.08 0.08 92 1007.3
20260506223042 57 136 0.9 3.5 0.00 0.08 0.08 92 1007.3
20260506222531 57 134 0.0 3.5 0.00 0.08 0.08 92 1007.2
20260506222036 57 0 0.0 3.5 0.00 0.08 0.08 92 1007.3
20260506221552 57 131 0.0 5.2 0.00 0.08 0.08 92 1007.2
20260506221033 57 245 0.9 5.2 0.00 0.08 0.08 92 1007.3
20260506220529 57 254 0.9 4.3 0.00 0.08 0.08 92 1007.3
20260506220046 57 0 0.9 3.5 0.00 0.08 0.08 92 1007.3
20260506215531 57 0 0.0 5.2 0.00 0.08 0.08 92 1007.3
20260506215028 57 72 0.0 5.2 0.00 0.08 0.08 92 1007.3
20260506214537 57 0 0.9 5.2 0.00 0.08 0.08 92 1007.2
20260506214032 57 239 0.9 5.2 0.01 0.08 0.08 92 1007.2
20260506213532 57 198 0.9 5.2 0.01 0.08 0.08 92 1007.2
20260506213048 57 115 0.9 3.5 0.01 0.08 0.08 92 1007.1
20260506212529 57 134 0.0 4.3 0.01 0.08 0.08 92 1007.1
20260506212034 57 145 0.0 4.3 0.01 0.08 0.08 92 1007.1
20260506211549 58 101 0.9 4.3 0.01 0.08 0.08 92 1007.1
20260506211031 58 274 0.9 3.5 0.01 0.08 0.08 92 1007.2
20260506210529 58 102 0.9 3.5 0.01 0.08 0.08 92 1007.1
20260506210050 58 142 0.9 4.3 0.01 0.08 0.08 92 1007.1
20260506205529 58 151 0.9 4.3 0.01 0.08 0.08 92 1007.2
20260506205032 58 116 0.9 6.1 0.01 0.08 0.08 92 1007.3
20260506204539 58 249 0.0 6.1 0.01 0.08 0.08 92 1007.4
20260506204028 58 172 0.9 3.5 0.00 0.07 0.07 91 1007.5
20260506203529 58 104 0.9 4.3 0.00 0.07 0.07 91 1007.5
20260506203045 58 230 0.0 4.3 0.00 0.07 0.07 91 1007.6
20260506202529 58 302 0.9 2.6 0.00 0.07 0.07 91 1007.5
20260506202029 58 0 0.9 7.8 0.00 0.07 0.07 90 1007.6
20260506201545 58 235 0.0 7.8 0.00 0.07 0.07 90 1007.6
20260506201032 58 191 1.7 7.8 0.00 0.07 0.07 90 1007.6
20260506200534 58 273 0.0 5.2 0.00 0.07 0.07 90 1007.6
20260506200046 58 239 0.9 5.2 0.00 0.07 0.07 89 1007.5
20260506195529 58 252 1.7 5.2 0.00 0.07 0.07 90 1007.6
20260506195029 58 143 0.9 3.5 0.00 0.07 0.07 90 1007.6
20260506194540 58 311 0.9 3.5 0.00 0.07 0.07 90 1007.7
20260506194031 58 0 0.9 6.1 0.00 0.07 0.07 90 1007.7
20260506193528 58 46 0.9 6.1 0.01 0.07 0.07 90 1007.8
20260506193050 58 254 1.7 6.1 0.01 0.07 0.07 90 1007.9
20260506192530 58 229 0.9 6.1 0.01 0.07 0.07 90 1007.9
20260506192028 58 89 0.9 8.7 0.02 0.07 0.07 90 1007.9
20260506191543 58 221 2.6 8.7 0.02 0.07 0.07 90 1008.0
20260506191029 58 339 1.7 6.1 0.03 0.07 0.07 90 1008.1
20260506190555 58 242 1.7 7.0 0.03 0.07 0.07 90 1008.1
20260506190042 58 214 1.7 7.0 0.03 0.07 0.07 90 1008.1
20260506185531 58 103 1.7 7.0 0.03 0.07 0.07 90 1008.1
20260506185031 58 251 1.7 7.0 0.03 0.07 0.07 90 1008.3
20260506184541 58 176 1.7 6.1 0.03 0.07 0.07 90 1008.3
20260506184031 58 257 0.9 7.8 0.03 0.06 0.06 91 1008.3
20260506183532 58 136 0.9 7.8 0.03 0.06 0.06 90 1008.3
20260506183044 58 287 1.7 8.7 0.03 0.06 0.06 90 1008.5
20260506182532 58 354 1.7 8.7 0.04 0.06 0.06 90 1008.7
20260506182032 58 42 1.7 7.0 0.03 0.05 0.05 90 1008.8
20260506181543 58 201 0.9 4.3 0.04 0.05 0.05 90 1008.6
20260506181033 58 216 0.9 4.3 0.03 0.04 0.04 89 1008.5
20260506180532 59 153 0.0 6.1 0.03 0.04 0.04 90 1008.6
20260506180044 59 164 0.9 6.1 0.03 0.04 0.04 90 1008.4
20260506175531 59 110 0.9 5.2 0.04 0.04 0.04 89 1008.3
20260506175031 59 134 1.7 8.7 0.04 0.04 0.04 89 1008.5
20260506174542 59 287 1.7 8.7 0.04 0.04 0.04 89 1008.7
20260506174035 59 75 0.9 3.5 0.03 0.03 0.03 89 1008.7
20260506173534 59 93 0.0 2.6 0.03 0.03 0.03 89 1008.9
20260506173104 59 128 0.0 3.5 0.02 0.02 0.02 88 1009.2
20260506172532 59 102 0.9 3.5 0.02 0.02 0.02 88 1009.3
20260506172031 59 92 0.9 4.3 0.02 0.02 0.02 87 1009.4
20260506171546 59 216 0.0 5.2 0.01 0.01 0.01 87 1009.4
20260506171032 59 213 0.9 5.2 0.01 0.01 0.01 86 1009.7
20260506170531 59 276 0.9 5.2 0.01 0.01 0.01 85 1009.9
20260506170103 60 238 1.7 6.1 0.01 0.01 0.01 84 1009.8
20260506165533 60 255 0.9 8.7 0.00 0.00 0.00 84 1009.7
20260506165034 61 125 1.7 8.7 0.00 0.00 0.00 82 1009.8
20260506164543 61 47 1.7 6.1 0.00 0.00 0.00 81 1009.9
20260506164034 62 225 1.7 10.4 0.00 0.00 0.00 80 1009.9
20260506163531 62 194 1.7 10.4 0.00 0.00 0.00 78 1009.9
20260506163053 63 252 2.6 10.4 0.00 0.00 0.00 77 1009.8
20260506162537 63 240 1.7 7.8 0.00 0.00 0.00 77 1009.8
20260506162031 63 226 1.7 7.8 0.00 0.00 0.00 76 1009.8
20260506161542 63 281 2.6 7.8 0.00 0.00 0.00 76 1009.8
20260506161035 64 159 1.7 8.7 0.00 0.00 0.00 75 1009.8
20260506160532 64 224 1.7 8.7 0.00 0.00 0.00 76 1009.9
20260506160042 64 205 0.9 8.7 0.00 0.00 0.00 76 1010.2
20260506155531 64 266 1.7 7.8 0.00 0.00 0.00 75 1010.2
20260506155033 64 243 1.7 7.8 0.00 0.00 0.00 75 1010.1
20260506154547 64 70 1.7 7.8 0.00 0.00 0.00 76 1010.2
20260506154031 63 250 2.6 7.8 0.00 0.00 0.00 76 1010.4
20260506153532 63 233 2.6 7.0 0.00 0.00 0.00 76 1010.5
20260506153043 63 225 1.7 9.6 0.00 0.00 0.00 76 1010.4
20260506152529 63 282 2.6 9.6 0.00 0.00 0.00 76 1010.2
20260506152033 64 172 1.7 9.6 0.00 0.00 0.00 75 1010.1
20260506151543 64 269 2.6 8.7 0.00 0.00 0.00 76 1010.1
20260506151030 64 238 1.7 8.7 0.00 0.00 0.00 76 1010.1
20260506150531 64 81 1.7 7.0 0.00 0.00 0.00 75 1010.2
20260506150043 64 226 2.6 7.0 0.00 0.00 0.00 75 1010.2
20260506145536 64 201 1.7 7.8 0.00 0.00 0.00 74 1010.1
20260506145033 64 147 2.6 9.6 0.00 0.00 0.00 74 1010.0
20260506144544 65 2 2.6 11.3 0.00 0.00 0.00 73 1010.1
20260506144033 65 190 1.7 11.3 0.00 0.00 0.00 73 1010.2
20260506143533 65 245 3.5 11.3 0.00 0.00 0.00 73 1010.2
20260506143044 66 165 2.6 11.3 0.00 0.00 0.00 72 1010.3
20260506142533 66 238 1.7 11.3 0.00 0.00 0.00 73 1010.3
20260506142031 65 250 3.5 10.4 0.00 0.00 0.00 73 1010.2
20260506141545 66 46 3.5 14.8 0.00 0.00 0.00 73 1010.2
20260506141032 65 127 3.5 14.8 0.00 0.00 0.00 73 1010.2
20260506140532 65 260 1.7 7.8 0.00 0.00 0.00 74 1010.4
20260506140043 65 213 2.6 7.8 0.00 0.00 0.00 74 1010.4
20260506135531 65 245 1.7 12.2 0.00 0.00 0.00 74 1010.6
20260506135031 65 252 2.6 12.2 0.00 0.00 0.00 74 1010.4
20260506134543 64 250 2.6 8.7 0.00 0.00 0.00 77 1010.4
20260506134031 64 264 2.6 9.6 0.00 0.00 0.00 76 1010.3
20260506133531 64 263 3.5 9.6 0.00 0.00 0.00 76 1010.3
20260506133101 63 56 3.5 9.6 0.00 0.00 0.00 77 1010.1
20260506132532 63 249 2.6 7.8 0.00 0.00 0.00 78 1010.3
20260506132035 63 337 1.7 8.7 0.00 0.00 0.00 78 1010.3
20260506131545 62 230 1.7 8.7 0.00 0.00 0.00 78 1010.3
20260506131034 62 243 1.7 7.8 0.00 0.00 0.00 78 1010.2
20260506130533 62 129 1.7 7.8 0.00 0.00 0.00 78 1010.2
20260506130044 63 297 1.7 7.8 0.00 0.00 0.00 78 1010.3
20260506125531 63 76 1.7 5.2 0.00 0.00 0.00 78 1010.3
20260506125031 63 129 0.9 7.8 0.00 0.00 0.00 79 1010.3
20260506124543 63 235 2.6 7.8 0.00 0.00 0.00 78 1010.4
20260506124031 63 221 1.7 7.0 0.00 0.00 0.00 78 1010.6
20260506123532 63 179 1.7 9.6 0.00 0.00 0.00 78 1010.7
20260506123043 62 239 1.7 9.6 0.00 0.00 0.00 79 1010.9
20260506122532 62 162 2.6 9.6 0.00 0.00 0.00 79 1011.0
20260506122032 62 243 2.6 9.6 0.00 0.00 0.00 80 1010.9
20260506121539 62 114 1.7 6.1 0.00 0.00 0.00 81 1010.8
20260506121034 61 99 1.7 5.2 0.00 0.00 0.00 80 1010.8
20260506120532 61 228 0.9 5.2 0.00 0.00 0.00 82 1010.8
20260506120045 60 224 1.7 5.2 0.00 0.00 0.00 83 1010.7
20260506115532 59 233 1.7 5.2 0.00 0.00 0.00 84 1010.7
20260506115031 59 75 1.7 4.3 0.00 0.00 0.00 84 1010.8
20260506114540 59 231 1.7 4.3 0.00 0.00 0.00 84 1010.7
20260506114032 59 247 0.9 8.7 0.00 0.00 0.00 84 1010.7
20260506113531 59 240 1.7 8.7 0.00 0.00 0.00 85 1010.7
20260506113042 58 83 1.7 5.2 0.00 0.00 0.00 86 1010.7
20260506112531 58 233 0.9 7.8 0.00 0.00 0.00 86 1010.8
20260506112029 57 289 0.9 7.8 0.00 0.00 0.00 86 1010.7
20260506111543 57 230 0.9 7.8 0.00 0.00 0.00 86 1010.8
20260506111031 57 248 0.9 4.3 0.00 0.00 0.00 87 1011.0
20260506110532 57 117 0.0 4.3 0.00 0.00 0.00 87 1011.0
20260506110043 57 301 0.9 4.3 0.00 0.00 0.00 87 1011.0
20260506105532 57 121 0.9 3.5 0.00 0.00 0.00 87 1010.9
20260506105033 56 271 0.9 3.5 0.00 0.00 0.00 88 1010.8
20260506104608 56 0 0.9 5.2 0.00 0.00 0.00 88 1010.8
20260506104034 56 237 0.9 5.2 0.00 0.00 0.00 88 1010.9
20260506103533 56 248 0.0 2.6 0.00 0.00 0.00 88 1010.9
20260506103041 56 144 0.0 2.6 0.00 0.00 0.00 89 1010.9
20260506102533 55 0 0.0 2.6 0.00 0.00 0.00 89 1010.9
20260506102032 55 115 0.0 2.6 0.00 0.00 0.00 88 1010.9
20260506101548 55 91 0.0 2.6 0.00 0.00 0.00 88 1010.8
20260506101033 55 127 0.0 2.6 0.00 0.00 0.00 88 1010.7
20260506100531 55 296 0.0 3.5 0.00 0.00 0.00 88 1010.8
20260506100045 55 0 0.0 3.5 0.00 0.00 0.00 88 1010.8
20260506095531 55 0 0.0 2.6 0.00 0.00 0.00 88 1010.7
20260506095032 56 0 0.0 5.2 0.00 0.00 0.00 87 1010.7
20260506094540 56 120 0.0 5.2 0.00 0.00 0.00 87 1010.7
20260506094032 56 238 0.9 4.3 0.00 0.00 0.00 87 1010.6
20260506093533 56 218 0.9 4.3 0.00 0.00 0.00 87 1010.6
20260506093044 56 269 0.9 3.5 0.00 0.00 0.00 87 1010.6
20260506092532 56 131 0.9 5.2 0.00 0.00 0.00 87 1010.7
20260506092033 56 60 0.0 5.2 0.00 0.00 0.00 87 1010.8
20260506091536 56 238 0.9 6.1 0.00 0.00 0.00 87 1010.7
20260506091035 56 216 1.7 6.1 0.00 0.00 0.00 87 1010.8
20260506090533 56 228 0.0 2.6 0.00 0.00 0.00 87 1010.8
20260506090047 56 243 0.0 4.3 0.00 0.00 0.00 87 1010.8
20260506085532 56 252 0.0 5.2 0.00 0.00 0.00 86 1010.9
20260506085031 56 0 0.9 5.2 0.00 0.00 0.00 86 1010.9
20260506084544 56 86 0.9 3.5 0.00 0.00 0.00 86 1011.0
20260506084033 56 236 0.0 3.5 0.00 0.00 0.00 86 1010.9
20260506083532 56 276 0.9 6.1 0.00 0.00 0.00 86 1011.0
20260506083043 56 109 0.0 6.1 0.00 0.00 0.00 86 1010.9
20260506082533 56 254 1.7 5.2 0.00 0.00 0.00 86 1010.9
20260506082032 56 248 0.9 5.2 0.00 0.00 0.00 85 1010.9
20260506081537 56 247 0.9 5.2 0.00 0.00 0.00 85 1010.9
20260506081032 57 213 1.7 7.0 0.00 0.00 0.00 85 1010.8
20260506080533 57 266 0.9 8.7 0.00 0.00 0.00 85 1010.9
20260506073042 57 27 0.9 6.1 0.00 0.00 0.00 84 1011.0
20260506072531 57 261 0.9 6.1 0.00 0.00 0.00 83 1010.9
20260506072032 57 126 1.7 5.2 0.00 0.00 0.00 84 1011.0
20260506071540 57 204 1.7 11.3 0.00 0.00 0.00 83 1011.1
20260506071032 57 206 0.9 11.3 0.00 0.00 0.00 83 1011.1
20260506070532 58 193 0.0 6.1 0.00 0.00 0.00 83 1011.1
20260506062032 58 143 0.9 7.0 0.00 0.00 0.00 82 1010.8
20260506061543 58 237 0.9 5.2 0.00 0.00 0.00 81 1010.9
20260506061034 58 227 1.7 5.2 0.00 0.00 0.00 81 1010.8
20260506060533 58 297 0.9 4.3 0.00 0.00 0.00 81 1010.9
20260506051032 59 59 0.9 4.3 0.00 0.00 0.00 79 1011.4
20260506050533 60 257 0.9 4.3 0.00 0.00 0.00 79 1011.3
20260506045031 60 206 0.9 5.2 0.00 0.00 0.00 78 1011.4
20260506044545 60 161 0.9 7.8 0.00 0.00 0.00 78 1011.3
20260506044032 60 274 1.7 7.8 0.00 0.00 0.00 78 1011.3
20260506043532 60 103 0.0 5.2 0.00 0.00 0.00 78 1011.3
20260506043052 60 205 0.9 4.3 0.00 0.00 0.00 78 1011.4
20260506042532 60 240 0.0 4.3 0.00 0.00 0.00 78 1011.3
20260506042032 60 101 0.9 4.3 0.00 0.00 0.00 77 1011.4
20260506041538 61 111 0.9 7.0 0.00 0.00 0.00 77 1011.4
20260506041033 61 116 0.0 7.0 0.00 0.00 0.00 77 1011.4
20260506040531 61 113 0.9 5.2 0.00 0.00 0.00 76 1011.4
20260506040050 61 229 1.7 5.2 0.00 0.00 0.00 76 1011.4
20260506035531 61 115 1.7 7.0 0.00 0.00 0.00 76 1011.4
20260506035032 61 118 0.9 7.0 0.00 0.00 0.00 75 1011.5
20260506034543 61 311 0.9 6.1 0.00 0.00 0.00 75 1011.4
20260506034032 62 167 0.9 7.8 0.00 0.00 0.00 74 1011.4
20260506033533 62 251 0.9 7.8 0.00 0.00 0.00 74 1011.4
20260506033039 62 73 0.9 5.2 0.00 0.00 0.00 73 1011.4
20260506032529 62 158 0.9 5.2 0.00 0.00 0.00 72 1011.5
20260506032032 62 139 0.9 4.3 0.00 0.00 0.00 72 1011.3
20260506031552 62 267 0.9 9.6 0.00 0.00 0.00 71 1011.3
20260506031029 62 162 2.6 9.6 0.00 0.00 0.00 71 1011.3
20260506030532 62 208 0.9 5.2 0.00 0.00 0.00 70 1011.3
20260506030043 62 91 1.7 8.7 0.00 0.00 0.00 70 1011.4
20260506025529 63 0 0.9 8.7 0.00 0.00 0.00 70 1011.3
20260506025033 63 245 1.7 11.3 0.00 0.00 0.00 69 1011.3
20260506024546 63 300 1.7 11.3 0.00 0.00 0.00 69 1011.3
20260506024032 63 247 2.6 10.4 0.00 0.00 0.00 69 1011.2
20260506023533 63 216 1.7 8.7 0.00 0.00 0.00 69 1011.2
20260506023054 63 66 2.6 10.4 0.00 0.00 0.00 69 1011.2
20260506022529 63 229 1.7 10.4 0.00 0.00 0.00 69 1011.3
20260506022030 63 226 1.7 7.0 0.00 0.00 0.00 69 1011.2
20260506021551 63 257 0.9 7.0 0.00 0.00 0.00 69 1011.2
20260506021028 62 208 1.7 6.1 0.00 0.00 0.00 69 1011.2
20260506020531 62 131 0.9 7.8 0.00 0.00 0.00 69 1011.1
20260506020044 62 237 0.0 7.8 0.00 0.00 0.00 70 1011.2
20260506015529 62 181 0.9 6.1 0.00 0.00 0.00 69 1011.2
20260506015032 62 91 0.9 6.1 0.00 0.00 0.00 69 1011.2
20260506014543 63 89 0.0 6.1 0.00 0.00 0.00 69 1011.1
20260506014031 63 92 1.7 6.1 0.00 0.00 0.00 68 1011.0
20260506013532 63 250 0.9 4.3 0.00 0.00 0.00 68 1010.9
20260506013045 63 128 0.9 5.2 0.00 0.00 0.00 68 1010.9
20260506012532 63 251 0.9 7.0 0.00 0.00 0.00 68 1010.8
20260506012032 63 137 1.7 9.6 0.00 0.00 0.00 68 1010.7
20260506011546 63 215 1.7 9.6 0.00 0.00 0.00 68 1010.7
20260506011032 63 252 1.7 5.2 0.00 0.00 0.00 67 1010.7
20260506010532 63 158 0.9 5.2 0.00 0.00 0.00 67 1010.6
20260506010053 63 114 0.0 7.0 0.00 0.00 0.00 67 1010.4
20260506005531 63 229 1.7 7.0 0.00 0.00 0.00 67 1010.4
20260506005031 63 82 0.9 7.0 0.00 0.00 0.00 66 1010.3
20260506004544 63 197 0.9 7.0 0.00 0.00 0.00 66 1010.3
20260506004032 63 332 1.7 8.7 0.00 0.00 0.00 66 1010.2
20260506003529 63 255 1.7 8.7 0.00 0.00 0.00 66 1010.1
20260506003043 63 131 0.9 5.2 0.00 0.00 0.00 66 1010.0
20260506002532 63 197 1.7 5.2 0.00 0.00 0.00 65 1010.0
20260506002033 64 141 1.7 6.1 0.00 0.00 0.00 65 1009.9
20260506001541 64 109 0.9 7.0 0.00 0.00 0.00 64 1009.8
20260506001029 64 214 0.9 7.0 0.00 0.00 0.00 64 1009.8
20260506000529 64 79 1.7 5.2 0.00 0.00 0.00 64 1009.8
20260506000039 64 60 0.0 5.2 0.00 0.00 0.00 64 1009.7
20260505235529 65 0 0.9 5.2 0.00 0.00 0.00 64 1009.5
20260505235031 65 225 1.7 6.1 0.00 0.00 0.00 64 1009.6
20260505234600 65 240 0.9 6.1 0.00 0.00 0.00 64 1009.5
20260505234028 65 233 0.9 6.1 0.00 0.00 0.00 63 1009.5
20260505233532 66 221 0.9 6.1 0.00 0.00 0.00 63 1009.5
20260505233047 66 188 0.9 4.3 0.00 0.00 0.00 63 1009.4
20260505232535 66 237 0.9 6.1 0.00 0.00 0.00 62 1009.5
20260505232028 66 246 0.0 6.1 0.00 0.00 0.00 62 1009.2